EXS339E LEPA-EGKK

Flight info

Callsign EXS339E
Flight time 1h 54m
Altitude 36000
Route DRAGO DCT PAPOS DCT UMURE N863 GIROM DCT AGN DCT SECHE DCT UVELI DCT CNA DCT MANAK DCT EPAPU UM184 EKRAS UT507 REVTU DCT ODREP UP88 VASUX
Aircraft A21N/M-SDE2E3FGHIRWXY/LB1

Departure

Time 2026-05-05 19:18
Airport Palma de Mallorca Airport (LEPA)

Arrival

Time 2026-05-05 21:12
Airport London Gatwick Airport (EGKK)
Time Latitude Longitude Altitude Speed Heading
2026-05-05 18:57 39.55130 2.72972 44 ft 0 kts 162°
2026-05-05 19:07 39.55139 2.72968 42 ft 3 kts 161°
2026-05-05 19:08 39.55160 2.72959 42 ft 3 kts 161°
2026-05-05 19:08 39.55180 2.72950 40 ft 3 kts 156°
2026-05-05 19:08 39.55195 2.72932 40 ft 3 kts 114°
2026-05-05 19:08 39.55199 2.72919 42 ft 2 kts 89°
2026-05-05 19:09 39.55204 2.72942 42 ft 3 kts 60°
2026-05-05 19:09 39.55205 2.72945 42 ft 0 kts 59°
2026-05-05 19:11 39.55212 2.72959 41 ft 4 kts 59°
2026-05-05 19:12 39.55231 2.73000 44 ft 7 kts 59°
2026-05-05 19:12 39.55261 2.73065 41 ft 10 kts 56°
2026-05-05 19:12 39.55307 2.73152 44 ft 13 kts 58°
2026-05-05 19:12 39.55359 2.73263 44 ft 15 kts 59°
2026-05-05 19:13 39.55415 2.73383 44 ft 17 kts 58°
2026-05-05 19:13 39.55477 2.73514 44 ft 16 kts 58°
2026-05-05 19:13 39.55573 2.73536 44 ft 18 kts 329°
2026-05-05 19:13 39.55685 2.73559 44 ft 19 kts 50°
2026-05-05 19:14 39.55754 2.73711 44 ft 20 kts 60°
2026-05-05 19:14 39.55820 2.73853 44 ft 16 kts 58°
2026-05-05 19:14 39.55883 2.73982 44 ft 18 kts 58°
2026-05-05 19:14 39.55949 2.74121 43 ft 14 kts 58°
2026-05-05 19:15 39.55992 2.74212 44 ft 13 kts 58°
2026-05-05 19:15 39.56056 2.74279 44 ft 9 kts 28°
2026-05-05 19:15 39.56095 2.74306 43 ft 4 kts 26°
2026-05-05 19:15 39.56116 2.74319 42 ft 1 kts 26°
2026-05-05 19:16 39.56125 2.74325 43 ft 2 kts 26°
2026-05-05 19:16 39.56136 2.74332 43 ft 2 kts 27°
2026-05-05 19:16 39.56151 2.74343 43 ft 4 kts 25°
2026-05-05 19:16 39.56184 2.74349 43 ft 6 kts 354°
2026-05-05 19:17 39.56222 2.74318 42 ft 8 kts 301°
2026-05-05 19:17 39.56213 2.74234 41 ft 15 kts 239°
2026-05-05 19:17 39.56054 2.73905 44 ft 80 kts 238°
2026-05-05 19:17 39.55644 2.73036 44 ft 144 kts 238°
2026-05-05 19:18 39.55058 2.71809 407 ft 158 kts 238°
2026-05-05 19:18 39.54495 2.70615 1101 ft 160 kts 238°
2026-05-05 19:18 39.53905 2.69339 1667 ft 171 kts 240°
2026-05-05 19:18 39.53249 2.67942 2190 ft 194 kts 239°
2026-05-05 19:19 39.52455 2.66374 2683 ft 219 kts 237°
2026-05-05 19:19 39.51579 2.64747 3591 ft 222 kts 237°
2026-05-05 19:19 39.50696 2.63091 4588 ft 224 kts 238°
2026-05-05 19:19 39.49822 2.61410 5526 ft 227 kts 239°
2026-05-05 19:20 39.48941 2.59694 6450 ft 230 kts 239°
2026-05-05 19:20 39.48058 2.57952 7291 ft 237 kts 241°
2026-05-05 19:20 39.47509 2.55883 7732 ft 254 kts 266°
2026-05-05 19:20 39.47784 2.53605 8439 ft 264 kts 291°
2026-05-05 19:21 39.48810 2.51641 9311 ft 271 kts 308°
2026-05-05 19:21 39.50111 2.49853 10157 ft 278 kts 310°
2026-05-05 19:21 39.51491 2.47965 10531 ft 300 kts 309°
2026-05-05 19:21 39.52956 2.45924 11031 ft 316 kts 308°
2026-05-05 19:22 39.54465 2.43794 11780 ft 322 kts 307°
2026-05-05 19:22 39.55984 2.41630 12599 ft 327 kts 307°
2026-05-05 19:22 39.57524 2.39427 13410 ft 333 kts 306°
2026-05-05 19:22 39.59086 2.37184 14167 ft 337 kts 306°
2026-05-05 19:23 39.60661 2.34922 14934 ft 340 kts 306°
2026-05-05 19:23 39.62253 2.32631 15710 ft 343 kts 305°
2026-05-05 19:23 39.63834 2.30352 16465 ft 345 kts 305°
2026-05-05 19:23 39.65447 2.28026 17234 ft 348 kts 304°
2026-05-05 19:24 39.67075 2.25674 17988 ft 351 kts 304°
2026-05-05 19:24 39.68713 2.23305 18658 ft 354 kts 304°
2026-05-05 19:24 39.70364 2.20916 19297 ft 357 kts 304°
2026-05-05 19:24 39.72024 2.18512 19941 ft 358 kts 304°
2026-05-05 19:25 39.73692 2.16096 20589 ft 360 kts 304°
2026-05-05 19:25 39.75365 2.13664 21231 ft 362 kts 304°
2026-05-05 19:25 39.77043 2.11224 21863 ft 363 kts 304°
2026-05-05 19:25 39.78725 2.08762 22498 ft 365 kts 304°
2026-05-05 19:26 39.80419 2.06281 23116 ft 368 kts 304°
2026-05-05 19:26 39.82106 2.03829 23668 ft 370 kts 304°
2026-05-05 19:26 39.83836 2.01327 24152 ft 373 kts 304°
2026-05-05 19:26 39.85574 1.98805 24639 ft 375 kts 303°
2026-05-05 19:27 39.87318 1.96267 25112 ft 378 kts 303°
2026-05-05 19:27 39.89076 1.93705 25588 ft 380 kts 303°
2026-05-05 19:27 39.90839 1.91131 26054 ft 383 kts 303°
2026-05-05 19:27 39.92615 1.88532 26504 ft 385 kts 303°
2026-05-05 19:28 39.94401 1.85920 26957 ft 387 kts 303°
2026-05-05 19:28 39.96198 1.83288 27367 ft 390 kts 303°
2026-05-05 19:28 39.98001 1.80640 27791 ft 392 kts 303°
2026-05-05 19:28 39.99873 1.78081 28189 ft 401 kts 309°
2026-05-05 19:29 40.02177 1.75922 28576 ft 418 kts 322°
2026-05-05 19:29 40.04877 1.74345 28969 ft 429 kts 329°
2026-05-05 19:29 40.07682 1.72941 29345 ft 433 kts 330°
2026-05-05 19:29 40.10508 1.71543 29719 ft 435 kts 329°
2026-05-05 19:30 40.13337 1.70116 30065 ft 437 kts 329°
2026-05-05 19:30 40.16175 1.68671 30372 ft 440 kts 329°
2026-05-05 19:30 40.19030 1.67209 30672 ft 442 kts 329°
2026-05-05 19:30 40.21898 1.65734 30980 ft 444 kts 329°
2026-05-05 19:31 40.24742 1.64268 31320 ft 445 kts 329°
2026-05-05 19:31 40.27617 1.62787 31717 ft 444 kts 328°
2026-05-05 19:31 40.30494 1.61304 32082 ft 444 kts 328°
2026-05-05 19:31 40.33364 1.59826 32450 ft 444 kts 328°
2026-05-05 19:32 40.36239 1.58343 32803 ft 444 kts 328°
2026-05-05 19:32 40.39106 1.56860 33121 ft 444 kts 328°
2026-05-05 19:32 40.41973 1.55368 33464 ft 443 kts 328°
2026-05-05 19:32 40.44843 1.53874 33771 ft 444 kts 328°
2026-05-05 19:33 40.47733 1.52376 33945 ft 448 kts 328°
2026-05-05 19:33 40.50605 1.50882 33964 ft 454 kts 328°
2026-05-05 19:33 40.56555 1.47784 33942 ft 464 kts 329°
2026-05-05 19:34 40.62561 1.44668 33917 ft 464 kts 329°
2026-05-05 19:35 40.71564 1.39968 33926 ft 463 kts 329°
2026-05-05 19:35 40.77501 1.36858 33925 ft 463 kts 329°
2026-05-05 19:36 40.83489 1.33725 33919 ft 462 kts 329°
2026-05-05 19:36 40.88436 1.31123 33912 ft 461 kts 329°
2026-05-05 19:37 40.93968 1.28212 33915 ft 460 kts 329°
2026-05-05 19:37 41.00003 1.25022 33910 ft 460 kts 328°
2026-05-05 19:38 41.05897 1.21876 33916 ft 459 kts 328°
2026-05-05 19:38 41.11845 1.18746 33909 ft 460 kts 329°
2026-05-05 19:39 41.18176 1.16705 33910 ft 482 kts 346°
2026-05-05 19:39 41.24896 1.16059 33915 ft 484 kts 347°
2026-05-05 19:40 41.31557 1.15394 33922 ft 483 kts 347°
2026-05-05 19:40 41.38273 1.14686 33922 ft 484 kts 347°
2026-05-05 19:41 41.44986 1.13981 33932 ft 484 kts 348°
2026-05-05 19:41 41.51652 1.13279 33932 ft 484 kts 348°
2026-05-05 19:42 41.58370 1.12569 33932 ft 484 kts 348°
2026-05-05 19:42 41.65075 1.11860 33936 ft 483 kts 348°
2026-05-05 19:43 41.71780 1.11148 33950 ft 483 kts 348°
2026-05-05 19:43 41.78478 1.10434 33967 ft 483 kts 349°
2026-05-05 19:44 41.85175 1.09722 33977 ft 483 kts 349°
2026-05-05 19:44 41.91881 1.09004 33993 ft 483 kts 349°
2026-05-05 19:45 41.98527 1.08294 33988 ft 483 kts 349°
2026-05-05 19:45 42.05227 1.07577 33980 ft 483 kts 349°
2026-05-05 19:46 42.11928 1.06862 33969 ft 483 kts 349°
2026-05-05 19:46 42.18631 1.06149 33962 ft 483 kts 350°
2026-05-05 19:47 42.25338 1.05423 33951 ft 483 kts 350°
2026-05-05 19:47 42.31997 1.04699 33944 ft 484 kts 350°
2026-05-05 19:48 42.38704 1.03983 33955 ft 483 kts 350°
2026-05-05 19:48 42.45404 1.03250 33962 ft 484 kts 350°
2026-05-05 19:49 42.52089 1.02532 33972 ft 484 kts 350°
2026-05-05 19:49 42.58805 1.01813 33979 ft 484 kts 350°
2026-05-05 19:50 42.65522 1.01075 33990 ft 484 kts 350°
2026-05-05 19:50 42.72237 1.00342 34001 ft 485 kts 351°
2026-05-05 19:51 42.78964 0.99591 33995 ft 485 kts 350°
2026-05-05 19:51 42.85645 0.98847 34001 ft 485 kts 351°
2026-05-05 19:52 42.92371 0.98106 33998 ft 485 kts 351°
2026-05-05 19:52 42.99116 0.97365 34003 ft 486 kts 351°
2026-05-05 19:53 43.05845 0.96627 34005 ft 486 kts 351°
2026-05-05 19:53 43.12540 0.95883 34003 ft 486 kts 351°
2026-05-05 19:54 43.19280 0.95128 34000 ft 486 kts 351°
2026-05-05 19:54 43.26025 0.94379 33996 ft 486 kts 351°
2026-05-05 19:55 43.32761 0.93621 33999 ft 486 kts 351°
2026-05-05 19:55 43.39460 0.92869 33995 ft 486 kts 352°
2026-05-05 19:56 43.46201 0.92132 33989 ft 486 kts 352°
2026-05-05 19:56 43.52946 0.91380 33985 ft 486 kts 352°
2026-05-05 19:57 43.59679 0.90601 33985 ft 486 kts 352°
2026-05-05 19:57 43.66419 0.89830 33986 ft 486 kts 352°
2026-05-05 19:58 43.73110 0.89081 33977 ft 486 kts 352°
2026-05-05 19:58 43.79850 0.88312 33995 ft 486 kts 352°
2026-05-05 19:59 43.86588 0.87525 33982 ft 485 kts 350°
2026-05-05 19:59 43.89854 0.86523 33980 ft 479 kts 338°
2026-05-05 19:59 43.92915 0.84742 33987 ft 476 kts 332°
2026-05-05 20:00 43.98863 0.80838 33981 ft 476 kts 331°
2026-05-05 20:00 44.04862 0.76949 33973 ft 476 kts 332°
2026-05-05 20:01 44.10876 0.73087 33966 ft 476 kts 332°
2026-05-05 20:01 44.16877 0.69194 33961 ft 476 kts 331°
2026-05-05 20:02 44.22849 0.65237 33970 ft 476 kts 332°
2026-05-05 20:02 44.28832 0.61310 33969 ft 475 kts 332°
2026-05-05 20:03 44.34784 0.57406 33968 ft 475 kts 332°
2026-05-05 20:03 44.40769 0.53463 33969 ft 476 kts 332°
2026-05-05 20:04 44.46756 0.49530 33972 ft 475 kts 332°
2026-05-05 20:04 44.52735 0.45558 33960 ft 476 kts 332°
2026-05-05 20:05 44.58720 0.41601 33956 ft 476 kts 332°
2026-05-05 20:05 44.64664 0.37664 33945 ft 476 kts 332°
2026-05-05 20:06 44.70643 0.33678 33943 ft 476 kts 332°
2026-05-05 20:06 44.76615 0.29672 33957 ft 476 kts 333°
2026-05-05 20:07 44.82606 0.25693 33965 ft 476 kts 333°
2026-05-05 20:07 44.88543 0.21718 33962 ft 476 kts 332°
2026-05-05 20:08 44.94519 0.17693 33954 ft 476 kts 332°
2026-05-05 20:08 45.00478 0.13632 33942 ft 476 kts 332°
2026-05-05 20:09 45.06387 0.09591 33949 ft 476 kts 332°
2026-05-05 20:09 45.12361 0.05584 33941 ft 476 kts 333°
2026-05-05 20:10 45.18342 0.01553 33935 ft 475 kts 333°
2026-05-05 20:10 45.24301 -0.02510 33944 ft 475 kts 333°
2026-05-05 20:11 45.30212 -0.06559 33923 ft 475 kts 333°
2026-05-05 20:11 45.36160 -0.10638 33924 ft 474 kts 333°
2026-05-05 20:12 45.42105 -0.14714 33921 ft 474 kts 333°
2026-05-05 20:12 45.48042 -0.18805 33920 ft 474 kts 333°
2026-05-05 20:13 45.53980 -0.22908 33928 ft 474 kts 333°
2026-05-05 20:13 45.59861 -0.26997 33927 ft 473 kts 333°
2026-05-05 20:14 45.65756 -0.31191 33913 ft 472 kts 328°
2026-05-05 20:14 45.70997 -0.36791 33927 ft 471 kts 320°
2026-05-05 20:15 45.76120 -0.42657 33916 ft 471 kts 321°
2026-05-05 20:15 45.81265 -0.48454 33913 ft 471 kts 321°
2026-05-05 20:16 45.86377 -0.54231 33922 ft 471 kts 321°
2026-05-05 20:16 45.91503 -0.60051 33913 ft 470 kts 321°
2026-05-05 20:17 45.96574 -0.65829 33904 ft 471 kts 321°
2026-05-05 20:17 46.01655 -0.71630 33907 ft 471 kts 321°
2026-05-05 20:18 46.06787 -0.77501 33906 ft 471 kts 321°
2026-05-05 20:18 46.11872 -0.83335 33903 ft 471 kts 321°
2026-05-05 20:19 46.16993 -0.89240 33900 ft 471 kts 321°
2026-05-05 20:19 46.22473 -0.94342 33897 ft 471 kts 339°
2026-05-05 20:20 46.28834 -0.96574 33907 ft 471 kts 349°
2026-05-05 20:20 46.35209 -0.98459 33899 ft 470 kts 348°
2026-05-05 20:21 46.41604 -1.00418 33891 ft 470 kts 348°
2026-05-05 20:21 46.47992 -1.02384 33883 ft 469 kts 348°
2026-05-05 20:22 46.54354 -1.04351 33884 ft 469 kts 348°
2026-05-05 20:22 46.60688 -1.06312 33888 ft 467 kts 348°
2026-05-05 20:23 46.67038 -1.08282 33897 ft 466 kts 348°
2026-05-05 20:23 46.73373 -1.10249 33890 ft 465 kts 349°
2026-05-05 20:24 46.79700 -1.12221 33889 ft 464 kts 349°
2026-05-05 20:24 46.86017 -1.14193 33896 ft 464 kts 349°
2026-05-05 20:25 46.92285 -1.16158 33895 ft 464 kts 349°
2026-05-05 20:25 46.98596 -1.18139 33889 ft 464 kts 349°
2026-05-05 20:26 47.04903 -1.20121 33879 ft 464 kts 349°
2026-05-05 20:26 47.11176 -1.22100 33893 ft 464 kts 349°
2026-05-05 20:27 47.17496 -1.24098 33897 ft 465 kts 349°
2026-05-05 20:27 47.23823 -1.26102 33898 ft 465 kts 349°
2026-05-05 20:28 47.30140 -1.28103 33890 ft 465 kts 349°
2026-05-05 20:28 47.36461 -1.30104 33892 ft 464 kts 349°
2026-05-05 20:29 47.42739 -1.32118 33892 ft 465 kts 349°
2026-05-05 20:29 47.49054 -1.34145 33893 ft 465 kts 349°
2026-05-05 20:30 47.55369 -1.36175 33894 ft 464 kts 349°
2026-05-05 20:30 47.61681 -1.38205 33897 ft 464 kts 349°
2026-05-05 20:31 47.67957 -1.40224 33901 ft 464 kts 349°
2026-05-05 20:31 47.74336 -1.41484 33897 ft 462 kts 359°
2026-05-05 20:32 47.80756 -1.41926 33904 ft 462 kts 359°
2026-05-05 20:32 47.87181 -1.42393 33919 ft 462 kts 359°
2026-05-05 20:33 47.93587 -1.42867 33928 ft 462 kts 359°
2026-05-05 20:33 47.99981 -1.43354 33930 ft 462 kts 358°
2026-05-05 20:34 48.06392 -1.43833 33931 ft 461 kts 359°
2026-05-05 20:34 48.12811 -1.44288 33928 ft 461 kts 359°
2026-05-05 20:35 48.19221 -1.44739 33929 ft 461 kts 359°
2026-05-05 20:35 48.25583 -1.45203 33926 ft 461 kts 359°
2026-05-05 20:36 48.31999 -1.45668 33926 ft 461 kts 359°
2026-05-05 20:36 48.38411 -1.46128 33914 ft 461 kts 359°
2026-05-05 20:37 48.44821 -1.46592 33919 ft 461 kts 358°
2026-05-05 20:37 48.51190 -1.47053 33925 ft 461 kts 358°
2026-05-05 20:38 48.57603 -1.47521 33925 ft 462 kts 358°
2026-05-05 20:38 48.64016 -1.47994 33925 ft 462 kts 359°
2026-05-05 20:39 48.70434 -1.48460 33926 ft 462 kts 358°
2026-05-05 20:39 48.76852 -1.48933 33926 ft 462 kts 358°
2026-05-05 20:40 48.83230 -1.49395 33930 ft 462 kts 358°
2026-05-05 20:40 48.89649 -1.49936 33927 ft 463 kts 355°
2026-05-05 20:41 48.95973 -1.51825 33928 ft 463 kts 349°
2026-05-05 20:41 49.02241 -1.53858 33952 ft 464 kts 349°
2026-05-05 20:42 49.08556 -1.55906 33942 ft 464 kts 349°
2026-05-05 20:42 49.14877 -1.57947 33940 ft 464 kts 349°
2026-05-05 20:43 49.21186 -1.59987 33937 ft 464 kts 349°
2026-05-05 20:43 49.27502 -1.62037 33940 ft 464 kts 349°
2026-05-05 20:44 49.33775 -1.64077 33939 ft 464 kts 349°
2026-05-05 20:44 49.40075 -1.66130 33935 ft 463 kts 348°
2026-05-05 20:45 49.49501 -1.69214 33957 ft 461 kts 348°
2026-05-05 20:45 49.55781 -1.71263 33957 ft 461 kts 349°
2026-05-05 20:46 49.58921 -1.71770 33946 ft 460 kts
2026-05-05 20:46 49.62088 -1.71197 33956 ft 458 kts 14°
2026-05-05 20:46 49.68107 -1.68004 33966 ft 458 kts 21°
2026-05-05 20:47 49.74087 -1.64629 33961 ft 458 kts 20°
2026-05-05 20:47 49.80084 -1.61295 33960 ft 458 kts 20°
2026-05-05 20:48 49.83045 -1.59644 33783 ft 448 kts 20°
2026-05-05 20:48 49.85911 -1.58047 33433 ft 438 kts 20°
2026-05-05 20:48 49.88765 -1.56462 33004 ft 435 kts 20°
2026-05-05 20:48 49.91608 -1.54881 32410 ft 433 kts 20°
2026-05-05 20:49 49.94437 -1.53308 31763 ft 433 kts 20°
2026-05-05 20:49 49.97265 -1.51731 31126 ft 432 kts 20°
2026-05-05 20:49 50.00099 -1.50169 30550 ft 431 kts 19°
2026-05-05 20:49 50.02904 -1.48776 30025 ft 428 kts 18°
2026-05-05 20:50 50.05778 -1.47378 29408 ft 426 kts 18°
2026-05-05 20:50 50.07655 -1.46467 29017 ft 425 kts 17°
2026-05-05 20:50 50.11382 -1.44659 28497 ft 424 kts 18°
2026-05-05 20:50 50.14188 -1.43288 28136 ft 421 kts 17°
2026-05-05 20:51 50.16966 -1.41929 27641 ft 416 kts 17°
2026-05-05 20:51 50.19706 -1.40588 27098 ft 413 kts 17°
2026-05-05 20:51 50.22438 -1.39246 26531 ft 411 kts 17°
2026-05-05 20:51 50.25152 -1.37909 25983 ft 408 kts 17°
2026-05-05 20:52 50.27849 -1.36582 25453 ft 406 kts 17°
2026-05-05 20:52 50.30501 -1.35277 24958 ft 402 kts 17°
2026-05-05 20:52 50.33167 -1.33960 24425 ft 400 kts 17°
2026-05-05 20:52 50.35808 -1.32648 23899 ft 398 kts 17°
2026-05-05 20:53 50.38277 -1.31427 23392 ft 396 kts 17°
2026-05-05 20:53 50.40902 -1.30128 22798 ft 394 kts 17°
2026-05-05 20:53 50.43498 -1.28842 22239 ft 391 kts 17°
2026-05-05 20:53 50.46093 -1.27556 21690 ft 389 kts 17°
2026-05-05 20:54 50.48658 -1.26273 21145 ft 387 kts 18°
2026-05-05 20:54 50.51065 -1.24458 20601 ft 385 kts 34°
2026-05-05 20:54 50.53146 -1.21851 20115 ft 382 kts 39°
2026-05-05 20:54 50.54897 -1.19503 19701 ft 379 kts 40°
2026-05-05 20:55 50.56891 -1.16824 19236 ft 376 kts 40°
2026-05-05 20:55 50.58878 -1.14173 18794 ft 373 kts 40°
2026-05-05 20:55 50.60857 -1.11546 18372 ft 371 kts 40°
2026-05-05 20:55 50.62828 -1.08942 17893 ft 370 kts 40°
2026-05-05 20:56 50.64802 -1.06339 17398 ft 369 kts 40°
2026-05-05 20:56 50.66631 -1.03511 16914 ft 369 kts 49°
2026-05-05 20:56 50.68263 -1.00404 16464 ft 367 kts 50°
2026-05-05 20:56 50.69869 -0.97288 16034 ft 365 kts 50°
2026-05-05 20:57 50.71467 -0.94188 15597 ft 364 kts 50°
2026-05-05 20:57 50.73066 -0.91094 15165 ft 363 kts 50°
2026-05-05 20:57 50.74645 -0.88041 14754 ft 360 kts 50°
2026-05-05 20:57 50.76209 -0.85014 14322 ft 354 kts 50°
2026-05-05 20:58 50.77746 -0.82029 13903 ft 348 kts 50°
2026-05-05 20:58 50.79260 -0.79090 13449 ft 342 kts 50°
2026-05-05 20:58 50.80703 -0.76131 12990 ft 340 kts 57°
2026-05-05 20:58 50.81544 -0.72684 12644 ft 333 kts 77°
2026-05-05 20:59 50.81943 -0.69142 12457 ft 322 kts 79°
2026-05-05 20:59 50.82303 -0.65720 12289 ft 310 kts 79°
2026-05-05 20:59 50.82662 -0.62419 12097 ft 299 kts 79°
2026-05-05 20:59 50.83022 -0.59197 11676 ft 298 kts 78°
2026-05-05 21:00 50.83391 -0.55971 11234 ft 297 kts 78°
2026-05-05 21:00 50.83756 -0.52794 10820 ft 296 kts 78°
2026-05-05 21:00 50.84123 -0.49601 10416 ft 295 kts 78°
2026-05-05 21:00 50.84487 -0.46417 10025 ft 294 kts 78°
2026-05-05 21:01 50.84850 -0.43252 9618 ft 292 kts 78°
2026-05-05 21:01 50.85209 -0.40111 9254 ft 288 kts 78°
2026-05-05 21:01 50.85565 -0.37000 8822 ft 287 kts 78°
2026-05-05 21:01 50.85917 -0.33904 8432 ft 284 kts 78°
2026-05-05 21:02 50.86292 -0.30854 8051 ft 281 kts 71°
2026-05-05 21:02 50.87208 -0.28197 7700 ft 273 kts 46°
2026-05-05 21:02 50.88634 -0.26333 7379 ft 267 kts 33°
2026-05-05 21:02 50.90183 -0.24745 7040 ft 265 kts 31°
2026-05-05 21:03 50.91733 -0.23203 6679 ft 263 kts 31°
2026-05-05 21:03 50.93342 -0.21878 6315 ft 260 kts 16°
2026-05-05 21:03 50.95119 -0.21720 6015 ft 255 kts 349°
2026-05-05 21:03 50.96673 -0.22851 5954 ft 242 kts 322°
2026-05-05 21:04 50.97664 -0.24915 5809 ft 235 kts 295°
2026-05-05 21:04 50.98140 -0.27387 5505 ft 234 kts 287°
2026-05-05 21:04 50.98516 -0.29899 5156 ft 234 kts 286°
2026-05-05 21:04 50.98885 -0.32421 4818 ft 234 kts 286°
2026-05-05 21:05 50.99253 -0.34935 4475 ft 234 kts 286°
2026-05-05 21:05 50.99625 -0.37447 4138 ft 233 kts 285°
2026-05-05 21:05 51.00003 -0.39908 3822 ft 232 kts 289°
2026-05-05 21:05 51.00810 -0.42049 3461 ft 226 kts 318°
2026-05-05 21:06 51.02026 -0.43614 3128 ft 226 kts 325°
2026-05-05 21:06 51.03293 -0.45082 2979 ft 226 kts 326°
2026-05-05 21:06 51.04557 -0.46535 2964 ft 217 kts 326°
2026-05-05 21:06 51.05735 -0.47888 2954 ft 200 kts 326°
2026-05-05 21:07 51.06454 -0.48719 2964 ft 187 kts 326°
2026-05-05 21:07 51.07406 -0.49754 3004 ft 185 kts 336°
2026-05-05 21:07 51.08662 -0.50001 2998 ft 182 kts 12°
2026-05-05 21:07 51.09806 -0.49217 3003 ft 180 kts 40°
2026-05-05 21:08 51.10549 -0.47650 3012 ft 181 kts 61°
2026-05-05 21:08 51.11141 -0.45164 3007 ft 181 kts 72°
2026-05-05 21:08 51.11459 -0.43224 2997 ft 181 kts 75°
2026-05-05 21:08 51.11740 -0.41272 2854 ft 181 kts 76°
2026-05-05 21:09 51.11923 -0.39958 2708 ft 178 kts 76°
2026-05-05 21:09 51.12179 -0.38112 2479 ft 167 kts 77°
2026-05-05 21:09 51.12422 -0.36353 2285 ft 161 kts 77°
2026-05-05 21:09 51.12657 -0.34649 2062 ft 152 kts 77°
2026-05-05 21:10 51.12867 -0.33128 1857 ft 132 kts 77°
2026-05-05 21:10 51.13061 -0.31719 1671 ft 130 kts 77°
2026-05-05 21:10 51.13254 -0.30321 1475 ft 130 kts 76°
2026-05-05 21:10 51.13434 -0.29010 1299 ft 131 kts 77°
2026-05-05 21:11 51.13628 -0.27595 1124 ft 131 kts 77°
2026-05-05 21:11 51.13823 -0.26183 932 ft 130 kts 77°
2026-05-05 21:11 51.14015 -0.24796 756 ft 131 kts 77°
2026-05-05 21:11 51.14209 -0.23384 589 ft 130 kts 77°
2026-05-05 21:12 51.14405 -0.21990 404 ft 130 kts 77°
2026-05-05 21:12 51.14602 -0.20526 233 ft 130 kts 76°
2026-05-05 21:12 51.14766 -0.19321 216 ft 95 kts 76°
2026-05-05 21:12 51.14873 -0.18601 221 ft 45 kts 77°
2026-05-05 21:13 51.14946 -0.18129 219 ft 40 kts 74°
2026-05-05 21:13 51.15009 -0.17895 217 ft 18 kts 53°
2026-05-05 21:13 51.15089 -0.17760 215 ft 14 kts 20°
2026-05-05 21:13 51.15198 -0.17775 223 ft 16 kts 353°
2026-05-05 21:14 51.15271 -0.17666 215 ft 18 kts 79°
2026-05-05 21:14 51.15296 -0.17464 218 ft 19 kts 79°
2026-05-05 21:14 51.15372 -0.17287 220 ft 21 kts 70°
2026-05-05 21:14 51.15404 -0.17131 220 ft 12 kts 69°
2026-05-05 21:15 51.15438 -0.17073 214 ft 8 kts 351°
2026-05-05 21:15 51.15464 -0.17083 214 ft 0 kts 345°
2026-05-05 21:15 51.15466 -0.17085 222 ft 0 kts 347°